Mmabatho, South Africa

3:22 PM SAST on July 23, 2017 (GMT +0200)
Mmabatho

Weather History for FAMM - December, 2012

Change the Weather History Date:

Tuesday, December 11, 2012

  Actual Average Record
Temperature  
Mean Temperature 64 °F -  
Max Temperature 78 °F - - ()
Min Temperature 51 °F - - ()
Growing Degree Days 14 (Base 50)    
Moisture  
Dew Point 49 °F    
Average Humidity 59    
Maximum Humidity 94    
Minimum Humidity 25    
Precipitation  
Precipitation 0.01 in - - ()
Sea Level Pressure  
Sea Level Pressure 29.96 in    
Wind  
Wind Speed 15 mph ()    
Max Wind Speed 28 mph    
Max Gust Speed 36 mph    
Visibility 9.3 miles    
Events      
T = Trace of Precipitation, MM = Missing Value Source: Averaged Metar Reports

Daily Weather History Graph

Daily Weather History Graph

Search for Another Location

Airport or City:

Trip Planner

Search our weather history database for the weather conditions in past years. The results will help you decide how hot, cold, wet, or windy it might be!

Date:

Astronomy

Dec. 11, 2012 Rise Set
Actual Time 5:19 AM SAST 7:03 PM SAST
Civil Twilight 4:53 AM SAST 7:28 PM SAST
Nautical Twilight 4:22 AM SAST 8:00 PM SAST
Astronomical Twilight 3:49 AM SAST 8:32 PM SAST
Moon 3:19 AM SAST (12/11) 5:05 PM SAST (12/11)
Length of Visible Light 14h 35m
Length of Day
13h 43m
Waning Crescent, 6% of the Moon is Illuminated
Dec 11
Waning Crescent
Dec 13
New
Dec 20
First Quarter
Dec 28
Full
Jan 5
Last Quarter

Hourly Weather History & Observations

Time (SAST) Temp. Dew Point Humidity Pressure Visibility Wind Dir Wind Speed Gust Speed Precip Events Conditions
12:00 AM 55.4 °F 53.6 °F 94% 29.95 in - East 24.2 mph - N/A   Unknown
1:00 AM 55.4 °F 50.0 °F 82% 29.92 in - ENE 18.4 mph - N/A   Unknown
2:00 AM 57 °F 50 °F 70%  in - NE 12.7 mph - -  
2:00 AM 55.4 °F 50.0 °F 82% 29.95 in - NE 12.7 mph - N/A   Unknown
3:00 AM 55.4 °F 48.2 °F 77% 29.86 in - East 24.2 mph 35.7 mph N/A   Unknown
4:00 AM 57.2 °F 46.4 °F 67% 29.86 in - NE 18.4 mph - N/A   Unknown
5:00 AM 59 °F 49 °F 59%  in 12 mi NE 18.4 mph - -   Mostly Cloudy
5:00 AM 59.0 °F 48.2 °F 67% 29.89 in - NE 17.3 mph - N/A   Clear
6:00 AM 57.2 °F 48.2 °F 72% 29.92 in - NNE 19.6 mph - N/A   Clear
7:00 AM 57.2 °F 48.2 °F 72% 29.95 in - NNE 19.6 mph - N/A   Clear
8:00 AM 58 °F 49 °F 65%  in 12 mi NNE 20.7 mph - -   Mostly Cloudy
8:00 AM 57.2 °F 48.2 °F 72% 29.95 in - NNE 20.7 mph - N/A   Clear
9:00 AM 60.8 °F 50.0 °F 68% 29.98 in - NE 10.4 mph - N/A   Clear
10:00 AM 60.8 °F 50.0 °F 68% 29.95 in 6.2 mi NNE 27.6 mph - N/A   Mostly Cloudy
11:00 AM 63 °F 50 °F 52%  in 19 mi NE 24.2 mph - -   Scattered Clouds
11:00 AM 62.6 °F 48.2 °F 59% 29.95 in 6.2 mi NE 24.2 mph - N/A   Mostly Cloudy
12:00 PM 68.0 °F 44.6 °F 43% 29.98 in 6.2 mi South 3.5 mph - N/A   Mostly Cloudy
1:00 PM 71.6 °F 41.0 °F 33% 29.98 in 6.2 mi East 15.0 mph - N/A   Mostly Cloudy
2:00 PM 75 °F 46 °F 25%  in 19 mi ENE 10.4 mph - -   Scattered Clouds
2:00 PM 75.2 °F 44.6 °F 34% 29.98 in 6.2 mi ENE 10.4 mph - N/A   Scattered Clouds
3:00 PM 75.2 °F 44.6 °F 34% 29.92 in 6.2 mi ENE 17.3 mph - N/A   Scattered Clouds
4:00 PM 71.6 °F 51.8 °F 50% 29.95 in 6.2 mi NE 13.8 mph - N/A   Scattered Clouds
5:00 PM 73 °F 49 °F 32%  in 19 mi NE 21.9 mph - -   Scattered Clouds
5:00 PM 73.4 °F 48.2 °F 41% 29.92 in 6.2 mi NE 20.7 mph - N/A   Scattered Clouds
6:00 PM 71.6 °F 48.2 °F 43% 29.95 in 6.2 mi ENE 17.3 mph - N/A   Scattered Clouds
7:00 PM 68.0 °F 48.2 °F 49% 29.98 in 6.2 mi ENE 17.3 mph - N/A   Scattered Clouds
8:00 PM 66.2 °F 51.8 °F 60% 30.01 in 6.2 mi ENE 8.1 mph - N/A   Scattered Clouds
9:00 PM 62.6 °F 51.8 °F 68% 30.04 in - ENE 6.9 mph - N/A   Unknown
10:00 PM 62.6 °F 51.8 °F 68% 30.06 in - East 5.8 mph - N/A   Unknown
11:00 PM 62 °F 53 °F 64%  in - NE 5.8 mph - -  
11:00 PM 60.8 °F 51.8 °F 72% 30.09 in - NE 4.6 mph - N/A   Unknown